Starlink 35306

operational
NORAD ID: 67361 Int'l Des: 2026-003 Owner: SPXS Country: US Constellation: starlink
LEOCIRCULAR

About Starlink 35306

Description loading...

Live Position

Loading 3D Globe...

Upcoming Passes

Altitude History

Altitude vs Time

uPlot chart will show altitude changes over time

Two-Line Element Set

1 67361U 26003AD 26046.97566513 .00029206 00000-0 10389-2 0 9996
2 67361 43.0002 349.6368 0001513 273.0094 87.0584 15.28444193 5501
Epoch: Feb 15, 2026 • Age: 17 hours

Current Status

Altitude 481.7 km
Velocity 7.63 km/s
Sub-Earth Point 30.51°N, 15.37°W
Launch Date Jan 9, 2026
Age 0.1 years
Type internet

Technical Details

Classification Payload
Mass 575.00 kg
Dry Mass 530.00 kg
Total Mass 575.00 kg
Length 0.30 m
Diameter 4.10 m
Span 29.00 m
Shape Box + pan
Manufacturer SPXS
Bus Type Starlink V2MO
Phase Status In Orbit
Owner/State SPXS/US

Large Constellations

Loading constellations...